Regional Weather Roundup
Issued by NWS Mt. Holly, NJ

Home | Current Version | Previous Version | Text Only | Print | Product List | Glossary On
Versions: 1 2 3 4 5 6 7 8 9 10 11 12 13 14 15 16 17 18 19 20 21 22 23 24 25 26 27 28 29 30 31 32 33 34 35 36 37 38 39 40 41 42 43 44 45 46 47 48 49 50
037
ASUS41 KPHI 010812
RWRPHI

REGIONAL WEATHER ROUNDUP
NATIONAL WEATHER SERVICE MOUNT HOLLY NJ
400 AM EDT SUN MAY 01 2016

NOTE:  "FAIR" INDICATES FEW OR NO CLOUDS BELOW 12,000 FEET WITH NO
SIGNIFICANT WEATHER AND/OR OBSTRUCTIONS TO VISIBILITY.

 * = STATION DOES NOT REPORT PRECIPITATION (E.G. RAIN, SNOW, ETC.)
        OR FOG.

NJZ015>026-010900-
SOUTHERN NEW JERSEY

CITY           SKY/WX    TMP DP  RH WIND       PRES   REMARKS
POMONA         CLOUDY    49  44  83 SE3       30.18F
WILDWOOD*      CLOUDY    50  45  81 E7        30.18F
MILLVILLE      CLOUDY    48  44  86 E5        30.17F
WRIGHTSTOWN    CLOUDY    45  42  89 E2        30.16S
MOUNT HOLLY    CLOUDY    46  41  82 CALM      30.18F
TRENTON        CLOUDY    47  39  74 E3        30.18R

$$
NJZ001>014-010900-
NORTHERN NEW JERSEY

CITY           SKY/WX    TMP DP  RH WIND       PRES   REMARKS
SUSSEX         CLOUDY    48  38  68 CALM      30.18F
ANDOVER*         N/A     47  35  63 CALM      30.18F
MORRISTOWN     CLOUDY    46  39  76 CALM      30.20S
NEWARK         CLOUDY    51  38  60 CALM      30.20R
TETERBORO      LGT RAIN  50  36  58 SW3       30.19S
CALDWELL       CLOUDY    49  38  65 CALM      30.20S
SOMERVILLE     CLOUDY    48  38  68 CALM      30.18S
ALLAIRE*       CLOUDY    48  42  80 SE3       30.20S
TOMS RIVER*    CLOUDY    45  39  81 CALM      30.18F

$$
PAZ043-044-047-054-055-060>062-066>071-010900-
EASTERN PENNSYLVANIA

CITY           SKY/WX    TMP DP  RH WIND       PRES   REMARKS
PHILADELPHIA   LGT RAIN  50  39  66 E3        30.19R
NORTH PHILA    CLOUDY    49  40  71 E3        30.20S
BLUE BELL*     CLOUDY    46  39  76 CALM      30.17S
DOYLESTOWN     CLOUDY    46  38  73 CALM      30.17S
QUAKERTOWN*    CLOUDY    48  37  66 SE3       30.18S
PERKASIE*      CLOUDY    46  37  71 CALM      30.18S
POTTSTOWN      CLOUDY    48  39  71 CALM      30.18S
LANCASTER      LGT RAIN  47  43  86 SE6       30.15S
COATESVILLE    CLOUDY    46  43  87 CALM      30.17R
READING        LGT RAIN  49  38  65 SE7       30.16R
ALLENTOWN      CLOUDY    51  37  58 SE3       30.17S
MOUNT POCONO   LGT RAIN  41  36  82 S8        30.14S
HAZLETON       LGT RAIN  43  41  93 SE6       30.16S
LEHIGHTON      DRIZZLE   46  43  87 CALM      30.18S
WILKES BARRE   LGT RAIN  48  43  82 CALM      30.14R

$$
DEZALL-MDZ008-012-015-019-020-010900-
DELAWARE AND EASTERN MARYLAND

CITY           SKY/WX    TMP DP  RH WIND       PRES   REMARKS
WILMINGTON     LGT RAIN  49  42  77 SE5       30.17F
DOVER          LGT RAIN  50  49  95 SE6       30.16S
GEORGETOWN     CLOUDY    49  47  93 CALM      30.17S
EASTON         DRIZZLE  N/A N/A N/A CALM      30.19S
PATUXENT       CLOUDY    54  47  77 SE8       30.15S
OCEAN CITY     CLOUDY    50  47  89 E6        30.16F
WALLOPS ISLAND CLOUDY    53  47  79 E6        30.17S
CAMBRIDGE      CLOUDY    48  45  87 CALM      30.15F
SALISBURY      CLOUDY    50  47  89 SE3       30.16F

$$
PAZ001-021-NYZ056-072-MDZ011-DCZ001-010900-
OTHER NEARBY LOCATIONS

CITY           SKY/WX    TMP DP  RH WIND       PRES   REMARKS
HARRISBURG     LGT RAIN  50  45  83 SE9       30.13S
STATE COLLEGE  LGT RAIN  49  47  93 S5        30.04F
WILLIAMSPORT   LGT RAIN  50  48  93 E15G24    30.08F
BINGHAMTON     LGT RAIN  45  43  93 S8        30.10S FOG
NEW YORK CITY  CLOUDY    50  32  50 CALM      30.22S
BALTIMORE      LGT RAIN  49  46  90 SE5       30.14F
WASHINGTON DC  LGT RAIN  52  49  89 S8        30.15F

$$




USA.gov is the U.S. government's official web portal to all federal, state and local government web resources and services.